Terug naar catalogus

STARLINK-32432

ActiefCommunicatieVLEO
NORAD 61257·PAYLOAD·🇺🇸 United States

Gelanceerd Sep 25, 2024 vanaf Vandenberg Space Force Base

Loading…

Volgende Passages (komende 24 uur)

TLE

VersSource: CelesTrak SupGP

Epoch: Sep 15, 2026, 03:20 UTC

1 61257C 24175Q   26258.13937500  .00028758  00000+0  85002-3 0  2586
2 61257  53.1588  30.7707 0001106  92.5322 340.5558 15.34362697    15

Volg STARLINK-32432 in realtime met AllMySat

Download on the App Store